Captain Cook, HI

11:49 AM HST on February 20, 2017 (GMT -1000)
Kalamakapala | | Change Station
Active Advisory: Small Craft Advisory

Elev 1470 ft 19.48 °N, 155.90 °W | Updated 47 minutes ago

Clear
Clear
71.1 °F
Feels Like 71 °F
N
1.7
Wind Variable Wind from North

Today
High -- | Low -- °F
--% Chance of Precip.
Yesterday
High -- | Low -- °F
Precip. -- in
Pressure 30.14 in
Visibility 10.0 miles
Clouds Scattered Clouds 3000 ft
Scattered Clouds 5500 ft
Heat Index 71 °F
Dew Point 65 °F
Humidity 81%
Rainfall 0.00 in
Snow Depth Not available.
6:49 AM 6:25 PM
Waning Crescent, 31% visible
METAR PHKO 202053Z 19010KT 10SM SCT030 SCT055 26/18 A3014 RMK AO2 SLP206 T02610183 50008
Pressure 30.14 in
Visibility 10.0 miles
Clouds Scattered Clouds 3000 ft
Scattered Clouds 5500 ft
Heat Index 71 °F
Dew Point 65 °F
Humidity 81%
Rainfall 0.00 in
Snow Depth Not available.
6:49 AM 6:25 PM
Waning Crescent, 31% visible
METAR PHKO 202053Z 19010KT 10SM SCT030 SCT055 26/18 A3014 RMK AO2 SLP206 T02610183 50008

Get Your Daily Forecast Email!

Thanks for signing up!

Be on the lookout for a verification email in your inbox.

You'll start receiving the daily forecast at 8 AM.

×

10-Day Weather Forecast

Almanac

Astronomy

Feb. 20, 2017 Rise Set
Actual Time
Civil Twilight
Nautical Twilight
Astronomical Twilight
Moon
Length of Visible Light
Length of Day
Tomorrow will be .
, % of the Moon is Illuminated

Today's Extremes

State Highs State Lows

Community

WunderPhotos

Upload Photos

1,962,540 photos uploaded!

WunderBlog® & News

Nearby

Air Quality

  Air Quality AQ Index Pollutant
Not available.

Snow Depth

Station Depth Elevation

Earthquake Activity

City Distance Mag. Time & Date
Minimum magnitude displayed is 2.5.

Coastal Water Temperatures

Place Temperature

Stations

Nearby Weather Stations

Station Location Temp. Windchill Dew Point Humidity Wind Precip. Elev Updated Type
                   

Watches & Warnings

Small Craft Advisory
Issued: 3:28 AM HST Feb. 20, 2017 – National Weather Service

... Small Craft Advisory now in effect until 6 PM HST Tuesday...

* winds and seas... northeast to east winds 25 to 30 kt. Seas 8 to
12 ft.

Precautionary/preparedness actions...

A Small Craft Advisory means that winds speeds of 25 to 33 knots
and/or seas 10 feet or greater are expected to produce conditions
hazardous to small craft. Inexperienced mariners... especially
those operating smaller vessels... should avoid navigating in
these conditions.